• In Slovakia
  • List of Countries
  • For 7 days
  • Water Temperature
  • Satellite Maps
  • Weather Map
  • Weather Widgets
  • user-avatar
    Login

    Hourly Weather Abovyan

    Today, 17 October, Wednesday

    Time Temperature Precipitation Wind Pressure Humidity
    00:00 +14°C° 0 mm 2 mps 676 mmHg 75%
    01:00 +13°C° 0 mm 2 mps 676 mmHg 76%
    02:00 +13°C° 0 mm 1 mps 676 mmHg 77%
    03:00 +12°C° 0 mm 2 mps 676 mmHg 78%
    04:00 +12°C° 0 mm 1 mps 676 mmHg 79%
    05:00 +12°C° 0 mm 1 mps 676 mmHg 80%
    06:00 +11°C° 0 mm 1 mps 676 mmHg 81%
    07:00 +13°C° 0 mm 1 mps 676 mmHg 71%
    08:00 +15°C° 0 mm 1 mps 677 mmHg 61%
    09:00 +18°C° 0 mm 1 mps 677 mmHg 51%
    10:00 +20°C° 0 mm 1 mps 677 mmHg 47%
    11:00 +21°C° 0 mm 1 mps 677 mmHg 43%
    12:00 +22°C° 0 mm 1 mps 676 mmHg 39%
    13:00 +22°C° 0 mm 1 mps 676 mmHg 38%
    14:00 +22°C° 0 mm 1 mps 676 mmHg 37%
    15:00 +22°C° 0 mm 1 mps 676 mmHg 37%
    16:00 +20°C° 0 mm 1 mps 675 mmHg 43%
    17:00 +18°C° 0 mm 1 mps 675 mmHg 49%
    18:00 +16°C° 0 mm 1 mps 675 mmHg 55%
    19:00 +15°C° 0 mm 1 mps 675 mmHg 59%
    20:00 +14°C° 0 mm 1 mps 675 mmHg 63%
    21:00 +14°C° 0 mm 1 mps 675 mmHg 67%
    22:00 +13°C° 0 mm 1 mps 675 mmHg 69%
    23:00 +13°C° 0 mm 1 mps 675 mmHg 72%

    Tomorrow, 18 October, Thursday

    Time Temperature Precipitation Wind Pressure Humidity
    00:00 +13°C° 0 mm 1 mps 674 mmHg 74%
    01:00 +12°C° 0 mm 1 mps 674 mmHg 75%
    02:00 +12°C° 0 mm 1 mps 674 mmHg 76%
    03:00 +11°C° 0 mm 0 mps 674 mmHg 77%
    04:00 +10°C° 0 mm 0 mps 674 mmHg 77%
    05:00 +10°C° 0 mm 0 mps 673 mmHg 76%
    06:00 +10°C° 0 mm 0 mps 673 mmHg 76%
    07:00 +12°C° 0 mm 0 mps 674 mmHg 66%
    08:00 +15°C° 0 mm 1 mps 674 mmHg 56%
    09:00 +18°C° 0 mm 1 mps 675 mmHg 47%
    10:00 +20°C° 0 mm 1 mps 675 mmHg 41%
    11:00 +21°C° 0 mm 1 mps 675 mmHg 36%
    12:00 +22°C° 0 mm 1 mps 674 mmHg 30%
    13:00 +23°C° 0 mm 1 mps 674 mmHg 29%
    14:00 +23°C° 0 mm 1 mps 674 mmHg 28%
    15:00 +23°C° 0 mm 1 mps 674 mmHg 27%
    16:00 +21°C° 0 mm 1 mps 673 mmHg 32%
    17:00 +19°C° 0 mm 1 mps 673 mmHg 38%
    18:00 +14°C° 0 mm 0 mps 673 mmHg 43%
    19:00 +14°C° 0 mm 0 mps 673 mmHg 47%
    20:00 +14°C° 0 mm 1 mps 673 mmHg 50%
    21:00 +14°C° 0 mm 1 mps 673 mmHg 53%
    22:00 +14°C° 0 mm 1 mps 673 mmHg 56%
    23:00 +13°C° 0 mm 1 mps 673 mmHg 58%

    Day after tomorrow, 19 October, Friday

    Time Temperature Precipitation Wind Pressure Humidity
    00:00 +13°C° 0 mm 1 mps 673 mmHg 60%
    01:00 +12°C° 0 mm 1 mps 673 mmHg 63%
    02:00 +12°C° 0 mm 1 mps 673 mmHg 65%
    03:00 +12°C° 0 mm 1 mps 673 mmHg 67%
    04:00 +11°C° 0 mm 1 mps 673 mmHg 68%
    05:00 +11°C° 0 mm 1 mps 673 mmHg 69%
    06:00 +10°C° 0 mm 0 mps 673 mmHg 69%
    07:00 +13°C° 0 mm 1 mps 674 mmHg 59%
    08:00 +15°C° 0 mm 1 mps 674 mmHg 49%
    09:00 +19°C° 0 mm 1 mps 675 mmHg 39%
    10:00 +20°C° 0 mm 1 mps 675 mmHg 36%
    11:00 +20°C° 0 mm 2 mps 675 mmHg 32%
    12:00 +21°C° 0 mm 2 mps 674 mmHg 28%
    13:00 +21°C° 0 mm 2 mps 674 mmHg 28%
    14:00 +23°C° 0 mm 2 mps 674 mmHg 27%
    15:00 +23°C° 0 mm 2 mps 673 mmHg 27%
    16:00 +21°C° 0 mm 1 mps 673 mmHg 32%
    17:00 +19°C° 0 mm 1 mps 673 mmHg 38%
    18:00 +16°C° 0 mm 1 mps 672 mmHg 43%
    19:00 +15°C° 0 mm 1 mps 673 mmHg 45%
    20:00 +15°C° 0 mm 1 mps 673 mmHg 47%
    21:00 +14°C° 0 mm 1 mps 673 mmHg 49%
    22:00 +14°C° 0 mm 1 mps 673 mmHg 50%
    23:00 +14°C° 0 mm 1 mps 673 mmHg 51%

    20 October, Saturday

    Time Temperature Precipitation Wind Pressure Humidity
    00:00 +13°C° 0 mm 1 mps 673 mmHg 52%
    01:00 +13°C° 0 mm 1 mps 673 mmHg 51%
    02:00 +13°C° 0 mm 1 mps 672 mmHg 51%
    03:00 +13°C° 0 mm 1 mps 672 mmHg 50%
    04:00 +12°C° 0 mm 1 mps 672 mmHg 50%
    05:00 +12°C° 0 mm 1 mps 672 mmHg 49%
    06:00 +12°C° 0 mm 1 mps 672 mmHg 49%
    07:00 +14°C° 0.1 mm 1 mps 673 mmHg 46%
    08:00 +16°C° 0.1 mm 1 mps 673 mmHg 43%
    09:00 +19°C° 0.1 mm 1 mps 674 mmHg 39%
    10:00 +19°C° 0.1 mm 2 mps 673 mmHg 38%
    11:00 +20°C° 0.1 mm 2 mps 673 mmHg 37%
    12:00 +23°C° 0.1 mm 2 mps 673 mmHg 36%
    13:00 +23°C° 0.1 mm 2 mps 672 mmHg 35%
    14:00 +23°C° 0.1 mm 2 mps 672 mmHg 35%
    15:00 +23°C° 0.1 mm 2 mps 672 mmHg 34%
    16:00 +20°C° 0.1 mm 2 mps 671 mmHg 38%
    17:00 +20°C° 0.1 mm 1 mps 671 mmHg 43%
    18:00 +18°C° 0.1 mm 1 mps 671 mmHg 47%
    19:00 +16°C° 0.2 mm 1 mps 671 mmHg 48%
    20:00 +16°C° 0.2 mm 1 mps 671 mmHg 49%
    21:00 +16°C° 0.2 mm 1 mps 671 mmHg 49%
    22:00 +15°C° 0.2 mm 1 mps 671 mmHg 50%
    23:00 +15°C° 0.2 mm 1 mps 671 mmHg 51%

    21 October, Sunday

    Time Temperature Precipitation Wind Pressure Humidity
    00:00 +15°C° 0.2 mm 1 mps 671 mmHg 51%
    01:00 +14°C° 0.1 mm 1 mps 671 mmHg 52%
    02:00 +14°C° 0.1 mm 1 mps 670 mmHg 52%
    03:00 +14°C° 0.1 mm 1 mps 670 mmHg 53%
    04:00 +14°C° 0.1 mm 1 mps 670 mmHg 54%
    05:00 +14°C° 0.1 mm 1 mps 670 mmHg 56%
    06:00 +13°C° 0.1 mm 1 mps 670 mmHg 57%
    07:00 +15°C° 0.1 mm 1 mps 670 mmHg 53%
    08:00 +17°C° 0.1 mm 2 mps 671 mmHg 50%
    09:00 +18°C° 0.1 mm 2 mps 671 mmHg 46%
    10:00 +19°C° 0.1 mm 2 mps 671 mmHg 43%
    11:00 +20°C° 0.1 mm 2 mps 671 mmHg 41%
    12:00 +21°C° 0.1 mm 3 mps 671 mmHg 38%
    13:00 +21°C° 0 mm 3 mps 670 mmHg 38%
    14:00 +21°C° 0 mm 3 mps 670 mmHg 37%
    15:00 +21°C° 0 mm 3 mps 669 mmHg 37%
    16:00 +20°C° 0.1 mm 3 mps 669 mmHg 42%
    17:00 +18°C° 0.1 mm 2 mps 669 mmHg 46%
    18:00 +17°C° 0.1 mm 2 mps 669 mmHg 51%
    19:00 +16°C° 0.2 mm 1 mps 669 mmHg 53%
    20:00 +16°C° 0.2 mm 1 mps 669 mmHg 56%
    21:00 +15°C° 0.2 mm 1 mps 669 mmHg 58%
    22:00 +15°C° 0.2 mm 1 mps 669 mmHg 61%
    23:00 +15°C° 0.2 mm 1 mps 669 mmHg 65%

    22 October, Monday

    Time Temperature Precipitation Wind Pressure Humidity
    00:00 +14°C° 0.2 mm 1 mps 669 mmHg 68%
    01:00 +14°C° 0.2 mm 1 mps 669 mmHg 71%
    02:00 +14°C° 0.2 mm 1 mps 669 mmHg 73%
    03:00 +13°C° 0.2 mm 1 mps 669 mmHg 75%
    04:00 +13°C° 0.1 mm 1 mps 669 mmHg 76%
    05:00 +13°C° 0.1 mm 1 mps 669 mmHg 76%
    06:00 +13°C° 0.1 mm 1 mps 670 mmHg 77%
    07:00 +14°C° 0 mm 2 mps 670 mmHg 70%
    08:00 +16°C° 0 mm 2 mps 671 mmHg 63%
    09:00 +17°C° 0 mm 2 mps 671 mmHg 56%
    10:00 +18°C° 0 mm 3 mps 671 mmHg 52%
    11:00 +19°C° 0 mm 3 mps 671 mmHg 48%
    12:00 +21°C° 0 mm 4 mps 671 mmHg 44%
    13:00 +21°C° 0.1 mm 4 mps 671 mmHg 43%
    14:00 +21°C° 0.1 mm 4 mps 671 mmHg 43%
    15:00 +21°C° 0.1 mm 4 mps 671 mmHg 42%
    16:00 +19°C° 0.1 mm 3 mps 671 mmHg 47%
    17:00 +18°C° 0.1 mm 3 mps 671 mmHg 52%
    18:00 +16°C° 0.1 mm 2 mps 671 mmHg 56%
    19:00 +16°C° 0 mm 2 mps 671 mmHg 57%
    20:00 +15°C° 0 mm 2 mps 672 mmHg 57%
    21:00 +15°C° 0 mm 2 mps 672 mmHg 58%
    22:00 +14°C° 0 mm 2 mps 672 mmHg 58%
    23:00 +14°C° 0 mm 2 mps 672 mmHg 58%
    Show more